EWG8SY EDDL-EHAM

Flight info

Callsign EWG8SY
Flight time 0h 32m
Altitude 18000
Route SONEB6Z/05R SONEB P55 RKN
Aircraft A320/M-SDE3FGHIRWY/LB1

Departure

Time 2026-05-06 08:05
Airport Düsseldorf Airport (EDDL)

Arrival

Time 2026-05-06 08:38
Airport Amsterdam Airport Schiphol (EHAM)
Time Latitude Longitude Altitude Speed Heading
2026-05-06 07:34 51.28150 6.76547 118 ft 0 kts 96°
2026-05-06 07:55 51.28152 6.76526 114 ft 2 kts 96°
2026-05-06 07:56 51.28153 6.76500 116 ft 2 kts 96°
2026-05-06 07:56 51.28155 6.76474 115 ft 2 kts 96°
2026-05-06 07:56 51.28160 6.76450 114 ft 2 kts 149°
2026-05-06 07:56 51.28175 6.76439 113 ft 2 kts 167°
2026-05-06 07:57 51.28191 6.76434 114 ft 2 kts 175°
2026-05-06 07:57 51.28207 6.76433 114 ft 2 kts 185°
2026-05-06 07:57 51.28224 6.76436 114 ft 2 kts 182°
2026-05-06 07:57 51.28239 6.76441 117 ft 2 kts 228°
2026-05-06 07:58 51.28250 6.76462 114 ft 2 kts 227°
2026-05-06 07:58 51.28253 6.76467 114 ft 0 kts 233°
2026-05-06 08:00 51.28251 6.76463 118 ft 3 kts 233°
2026-05-06 08:01 51.28238 6.76435 116 ft 2 kts 233°
2026-05-06 08:01 51.28229 6.76416 117 ft 7 kts 232°
2026-05-06 08:02 51.28178 6.76303 116 ft 17 kts 244°
2026-05-06 08:02 51.28186 6.76151 116 ft 12 kts 263°
2026-05-06 08:02 51.28146 6.76049 117 ft 10 kts 231°
2026-05-06 08:02 51.28102 6.75961 113 ft 13 kts 231°
2026-05-06 08:03 51.28031 6.75814 115 ft 20 kts 232°
2026-05-06 08:03 51.27938 6.75620 117 ft 24 kts 233°
2026-05-06 08:03 51.27838 6.75408 116 ft 19 kts 240°
2026-05-06 08:03 51.27891 6.75291 115 ft 14 kts 333°
2026-05-06 08:04 51.27975 6.75248 116 ft 11 kts 15°
2026-05-06 08:04 51.28023 6.75330 114 ft 7 kts 51°
2026-05-06 08:04 51.28037 6.75357 114 ft 0 kts 51°
2026-05-06 08:04 51.28097 6.75481 115 ft 48 kts 52°
2026-05-06 08:05 51.28449 6.76221 114 ft 118 kts 52°
2026-05-06 08:05 51.29062 6.77484 338 ft 155 kts 50°
2026-05-06 08:05 51.29699 6.78850 1222 ft 154 kts 51°
2026-05-06 08:05 51.30379 6.80296 1721 ft 174 kts 51°
2026-05-06 08:06 51.31171 6.81949 1925 ft 200 kts 51°
2026-05-06 08:06 51.32087 6.83844 2190 ft 230 kts 52°
2026-05-06 08:06 51.33108 6.85978 2669 ft 249 kts 53°
2026-05-06 08:06 51.33648 6.87130 3067 ft 255 kts 53°
2026-05-06 08:07 51.33853 6.87553 3212 ft 256 kts 50°
2026-05-06 08:07 51.33991 6.87819 3305 ft 257 kts 49°
2026-05-06 08:07 51.34225 6.88236 3456 ft 260 kts 46°
2026-05-06 08:08 51.35650 6.90028 4329 ft 263 kts 28°
2026-05-06 08:08 51.37371 6.91079 5219 ft 267 kts 11°
2026-05-06 08:08 51.39217 6.91587 6111 ft 271 kts
2026-05-06 08:08 51.41093 6.92080 6923 ft 276 kts
2026-05-06 08:09 51.42969 6.92572 8059 ft 263 kts
2026-05-06 08:09 51.44739 6.93036 9604 ft 257 kts
2026-05-06 08:09 51.46491 6.93501 10632 ft 261 kts
2026-05-06 08:09 51.48296 6.93941 11357 ft 264 kts
2026-05-06 08:10 51.50139 6.94046 12072 ft 266 kts 356°
2026-05-06 08:10 51.51990 6.93735 12801 ft 268 kts 348°
2026-05-06 08:10 51.53835 6.93200 13515 ft 271 kts 348°
2026-05-06 08:10 51.55703 6.92674 14153 ft 274 kts 348°
2026-05-06 08:11 51.57593 6.92151 14797 ft 277 kts 348°
2026-05-06 08:11 51.59503 6.91625 15438 ft 279 kts 349°
2026-05-06 08:11 51.61427 6.91092 16079 ft 282 kts 349°
2026-05-06 08:11 51.63369 6.90548 16723 ft 284 kts 349°
2026-05-06 08:12 51.65327 6.89996 17388 ft 287 kts 349°
2026-05-06 08:12 51.67328 6.89432 17762 ft 302 kts 349°
2026-05-06 08:12 51.69448 6.88835 17819 ft 325 kts 349°
2026-05-06 08:12 51.71734 6.88049 17824 ft 347 kts 339°
2026-05-06 08:13 51.74017 6.86457 17825 ft 369 kts 334°
2026-05-06 08:13 51.76400 6.84612 17826 ft 389 kts 333°
2026-05-06 08:13 51.78862 6.82680 17826 ft 397 kts 333°
2026-05-06 08:13 51.81349 6.80717 17826 ft 399 kts 333°
2026-05-06 08:14 51.83844 6.78739 17829 ft 400 kts 333°
2026-05-06 08:14 51.86339 6.76750 17830 ft 400 kts 333°
2026-05-06 08:14 51.88803 6.74775 17831 ft 401 kts 333°
2026-05-06 08:14 51.91231 6.72423 17831 ft 416 kts 320°
2026-05-06 08:15 51.93290 6.69012 17830 ft 430 kts 310°
2026-05-06 08:15 51.95261 6.65324 17835 ft 434 kts 310°
2026-05-06 08:15 51.97223 6.61598 17837 ft 435 kts 310°
2026-05-06 08:15 51.99179 6.57852 17837 ft 435 kts 309°
2026-05-06 08:16 52.01136 6.54097 17835 ft 435 kts 309°
2026-05-06 08:16 52.03091 6.50347 17842 ft 435 kts 310°
2026-05-06 08:16 52.05019 6.46655 17842 ft 435 kts 310°
2026-05-06 08:16 52.06976 6.42909 17843 ft 434 kts 310°
2026-05-06 08:17 52.08930 6.39166 17848 ft 434 kts 310°
2026-05-06 08:17 52.10879 6.35428 18373 ft 431 kts 310°
2026-05-06 08:17 52.12808 6.31727 19028 ft 428 kts 309°
2026-05-06 08:17 52.14741 6.28017 19454 ft 431 kts 310°
2026-05-06 08:18 52.16669 6.24309 19453 ft 429 kts 309°
2026-05-06 08:18 52.18592 6.20591 19455 ft 428 kts 309°
2026-05-06 08:18 52.20511 6.16872 19294 ft 430 kts 309°
2026-05-06 08:18 52.22443 6.13125 18297 ft 435 kts 309°
2026-05-06 08:19 52.24366 6.09388 17430 ft 434 kts 310°
2026-05-06 08:19 52.26275 6.05671 16528 ft 418 kts 310°
2026-05-06 08:19 52.28098 6.02124 15785 ft 400 kts 310°
2026-05-06 08:19 52.29864 5.98684 14858 ft 390 kts 311°
2026-05-06 08:20 52.31587 5.95327 13929 ft 381 kts 311°
2026-05-06 08:20 52.33274 5.92041 12916 ft 374 kts 311°
2026-05-06 08:20 52.34931 5.88809 11846 ft 368 kts 311°
2026-05-06 08:20 52.36562 5.85618 10789 ft 364 kts 311°
2026-05-06 08:21 52.38181 5.82443 10173 ft 363 kts 310°
2026-05-06 08:21 52.39789 5.79285 9962 ft 353 kts 310°
2026-05-06 08:21 52.41274 5.76357 9788 ft 325 kts 310°
2026-05-06 08:21 52.42662 5.73619 9661 ft 300 kts 310°
2026-05-06 08:22 52.43951 5.71044 9507 ft 288 kts 307°
2026-05-06 08:22 52.44828 5.68129 9389 ft 287 kts 285°
2026-05-06 08:22 52.44968 5.64886 9257 ft 287 kts 263°
2026-05-06 08:22 52.44587 5.61654 9125 ft 288 kts 259°
2026-05-06 08:23 52.44177 5.58445 8994 ft 287 kts 259°
2026-05-06 08:23 52.43767 5.55282 8863 ft 287 kts 259°
2026-05-06 08:23 52.43353 5.52091 8728 ft 286 kts 259°
2026-05-06 08:23 52.42940 5.48904 8598 ft 286 kts 259°
2026-05-06 08:24 52.42531 5.45715 8471 ft 285 kts 260°
2026-05-06 08:24 52.42124 5.42536 8338 ft 285 kts 260°
2026-05-06 08:24 52.41716 5.39364 8208 ft 284 kts 259°
2026-05-06 08:24 52.41303 5.36198 8078 ft 284 kts 259°
2026-05-06 08:25 52.40536 5.33225 7946 ft 287 kts 238°
2026-05-06 08:25 52.39385 5.30609 7822 ft 287 kts 234°
2026-05-06 08:25 52.38174 5.28013 7686 ft 287 kts 234°
2026-05-06 08:25 52.36956 5.25424 7566 ft 287 kts 234°
2026-05-06 08:26 52.35740 5.22845 7436 ft 286 kts 234°
2026-05-06 08:26 52.34524 5.20271 7313 ft 285 kts 234°
2026-05-06 08:26 52.33312 5.17704 7184 ft 285 kts 234°
2026-05-06 08:26 52.32099 5.15134 7076 ft 285 kts 234°
2026-05-06 08:27 52.30892 5.12577 6953 ft 284 kts 234°
2026-05-06 08:27 52.29683 5.10022 6833 ft 284 kts 234°
2026-05-06 08:27 52.28473 5.07471 6741 ft 284 kts 233°
2026-05-06 08:27 52.27280 5.04957 6642 ft 283 kts 234°
2026-05-06 08:28 52.26076 5.02419 6488 ft 283 kts 233°
2026-05-06 08:28 52.24876 4.99887 6244 ft 281 kts 234°
2026-05-06 08:28 52.23681 4.97363 5976 ft 281 kts 233°
2026-05-06 08:28 52.22487 4.94830 5714 ft 282 kts 234°
2026-05-06 08:29 52.21295 4.92288 5457 ft 282 kts 234°
2026-05-06 08:29 52.20179 4.89663 5194 ft 282 kts 237°
2026-05-06 08:29 52.19097 4.86995 4937 ft 282 kts 238°
2026-05-06 08:29 52.18031 4.84356 4680 ft 283 kts 238°
2026-05-06 08:30 52.16954 4.81675 4418 ft 283 kts 238°
2026-05-06 08:30 52.15879 4.78992 4163 ft 282 kts 238°
2026-05-06 08:30 52.14812 4.76318 3903 ft 281 kts 238°
2026-05-06 08:30 52.13751 4.73650 3641 ft 280 kts 239°
2026-05-06 08:31 52.13035 4.70758 3379 ft 272 kts 265°
2026-05-06 08:31 52.13026 4.68753 3216 ft 264 kts 279°
2026-05-06 08:31 52.13261 4.65828 2952 ft 258 kts 282°
2026-05-06 08:31 52.13531 4.62973 2692 ft 253 kts 282°
2026-05-06 08:32 52.13906 4.59275 2346 ft 247 kts 285°
2026-05-06 08:32 52.14591 4.56826 2097 ft 233 kts 315°
2026-05-06 08:32 52.15692 4.55002 1998 ft 220 kts 322°
2026-05-06 08:32 52.16468 4.54021 1987 ft 206 kts 338°
2026-05-06 08:33 52.17756 4.53290 2000 ft 190 kts 354°
2026-05-06 08:33 52.18998 4.53205 2019 ft 168 kts 10°
2026-05-06 08:33 52.20078 4.53602 1997 ft 151 kts 23°
2026-05-06 08:33 52.21225 4.54630 1996 ft 138 kts 39°
2026-05-06 08:34 52.21903 4.55689 2008 ft 135 kts 50°
2026-05-06 08:34 52.22835 4.57984 2017 ft 155 kts 57°
2026-05-06 08:34 52.23407 4.59462 1962 ft 157 kts 56°
2026-05-06 08:35 52.23992 4.60973 1835 ft 157 kts 56°
2026-05-06 08:35 52.24575 4.62481 1642 ft 157 kts 56°
2026-05-06 08:35 52.25151 4.63972 1454 ft 150 kts 56°
2026-05-06 08:35 52.25681 4.65345 1241 ft 138 kts 56°
2026-05-06 08:36 52.26182 4.66645 1038 ft 131 kts 56°
2026-05-06 08:36 52.26659 4.67881 856 ft 127 kts 56°
2026-05-06 08:36 52.27140 4.69131 692 ft 130 kts 55°
2026-05-06 08:36 52.27632 4.70413 476 ft 133 kts 56°
2026-05-06 08:37 52.28128 4.71706 317 ft 134 kts 55°
2026-05-06 08:37 52.28623 4.72989 153 ft 134 kts 55°
2026-05-06 08:37 52.29107 4.74238 9 ft 124 kts 55°
2026-05-06 08:37 52.29491 4.75229 -4 ft 79 kts 58°
2026-05-06 08:38 52.29695 4.75743 -4 ft 27 kts 43°
2026-05-06 08:38 52.29835 4.75848 -4 ft 20 kts 30°
2026-05-06 08:38 52.29965 4.75956 -4 ft 20 kts 26°
2026-05-06 08:38 52.30048 4.76133 -5 ft 21 kts 58°
2026-05-06 08:39 52.30118 4.76297 -2 ft 9 kts 40°
2026-05-06 08:39 52.30160 4.76267 -1 ft 6 kts 324°
2026-05-06 08:39 52.30190 4.76250 -1 ft 4 kts
2026-05-06 08:39 52.30224 4.76331 -1 ft 11 kts 61°
2026-05-06 08:40 52.30269 4.76446 0 ft 13 kts 53°
2026-05-06 08:40 52.30330 4.76543 -1 ft 10 kts 354°
2026-05-06 08:40 52.30379 4.76494 -1 ft 9 kts 334°
2026-05-06 08:40 52.30444 4.76497 -3 ft 11 kts 47°
2026-05-06 08:41 52.30467 4.76564 -3 ft 0 kts 57°
2026-05-06 08:41 52.30468 4.76566 -3 ft 0 kts 57°